Location: French Creek State Gamelands
(40.1750°N, 75.7969°W)
Time: 06:49:49
(UTC-04:00)

ISS - All Passes

Search period start: 24 June 2018 00:00
Search period end: 04 July 2018 00:00
Orbit: 403 x 408 km, 51.6° (Epoch: 24 June)

Date Brightness Start Highest point End Pass type
(mag) Time Alt. Az. Time Alt. Az. Time Alt. Az.
24 Jun - 07:20:18 10° S 07:22:43 19° SE 07:25:08 10° E daylight
24 Jun - 08:55:48 10° WSW 08:58:59 46° NNW 09:02:10 10° NE daylight
24 Jun - 10:34:15 10° NW 10:36:07 14° NNW 10:37:58 10° NNE daylight
24 Jun - 12:12:17 10° NNW 12:13:43 12° N 12:15:09 10° NNE daylight
24 Jun - 13:48:06 10° NW 13:51:02 29° NNE 13:53:58 10° E daylight
24 Jun - 15:24:32 10° WNW 15:27:33 34° SW 15:30:33 10° SSE daylight
25 Jun - 08:03:35 10° SW 08:06:53 85° NNW 08:10:12 10° NE daylight
25 Jun - 09:41:26 10° WNW 09:43:47 18° NNW 09:46:07 10° NNE daylight
25 Jun - 11:20:10 10° NNW 11:21:18 11° N 11:22:28 10° NNE daylight
25 Jun - 12:56:15 10° NNW 12:58:47 20° NNE 13:01:20 10° ENE daylight
25 Jun - 14:32:17 10° WNW 14:35:34 70° SW 14:38:49 10° SE daylight
26 Jun - 07:11:41 10° SSW 07:14:51 47° SE 07:18:03 10° ENE daylight
26 Jun - 08:48:43 10° W 08:51:29 24° NNW 08:54:17 10° NNE daylight
26 Jun - 10:27:37 10° NNW 10:28:53 12° N 10:30:10 10° NNE daylight
26 Jun - 12:04:24 10° NNW 12:06:28 15° NNE 12:08:32 10° NE daylight
26 Jun - 13:40:14 10° NW 13:43:30 60° NE 13:46:44 10° ESE daylight
26 Jun - 15:17:48 10° W 15:19:38 14° SW 15:21:27 10° SSW daylight
27 Jun - 06:20:11 10° S 06:22:53 24° SE 06:25:38 10° ENE daylight
27 Jun - 07:56:09 10° W 07:59:16 37° NNW 08:02:23 10° NE daylight
27 Jun - 09:34:48 10° NW 09:36:29 13° N 09:38:09 10° NNE daylight
27 Jun - 11:12:30 10° NNW 11:14:05 13° N 11:15:40 10° NE daylight
27 Jun - 12:48:16 10° NW 12:51:19 34° NNE 12:54:22 10° E daylight
27 Jun - 14:24:54 10° WNW 14:27:44 27° SW 14:30:33 10° SSE daylight
28 Jun - 05:29:29 10° SSE 05:31:00 13° SE 05:32:32 10° ESE daylight
28 Jun - 07:03:50 10° WSW 07:07:06 67° NW 07:10:23 10° NE daylight
28 Jun - 08:41:55 10° WNW 08:44:05 16° NNW 08:46:15 10° NNE daylight
28 Jun - 10:20:25 10° NNW 10:21:38 12° N 10:22:52 10° NNE daylight
28 Jun - 11:56:22 10° NNW 11:59:04 23° NNE 12:01:46 10° E daylight
28 Jun - 13:32:32 10° WNW 13:35:45 53° SW 13:38:57 10° SE daylight
29 Jun - 06:11:45 10° SW 06:15:00 62° SE 06:18:16 10° ENE daylight
29 Jun - 07:49:06 10° WNW 07:51:44 21° NNW 07:54:22 10° NNE daylight
29 Jun - 09:28:00 10° NNW 09:29:11 11° N 09:30:22 10° NNE daylight
29 Jun - 11:04:28 10° NNW 11:06:43 17° NNE 11:08:59 10° ENE daylight
29 Jun - 12:40:22 10° NW 12:43:40 77° NE 12:46:56 10° ESE daylight
29 Jun - 14:18:44 10° WSW 14:19:42 11° SW 14:20:40 10° SW daylight
30 Jun - 05:20:03 10° SSW 05:22:58 31° SE 05:25:56 10° ENE daylight
30 Jun - 06:56:27 10° W 06:59:26 31° NNW 07:02:26 10° NE daylight
30 Jun - 08:35:13 10° NW 08:36:43 12° N 08:38:13 10° NNE daylight
30 Jun - 10:12:33 10° NNW 10:14:19 14° NNE 10:16:05 10° NE daylight
30 Jun - 11:48:20 10° NW 11:51:29 41° NNE 11:54:38 10° ESE daylight
30 Jun - 13:25:14 10° W 13:27:48 21° SW 13:30:21 10° S daylight
01 Jul - 04:28:53 10° S 04:31:01 16° SE 04:33:09 10° E visible
01 Jul - 06:03:59 10° WSW 06:07:12 53° NNW 06:10:27 10° NE daylight
01 Jul - 07:42:18 10° NW 07:44:17 15° NNW 07:46:15 10° NNE daylight
01 Jul - 09:20:32 10° NNW 09:21:52 12° N 09:23:11 10° NNE daylight
01 Jul - 10:56:23 10° NW 10:59:13 26° NNE 11:02:04 10° E daylight
01 Jul - 12:32:40 10° WNW 12:35:48 41° SW 12:38:54 10° SSE daylight
02 Jul - 05:11:46 10° SW 05:15:02 81° SE 05:18:21 10° NE daylight
02 Jul - 06:49:24 10° WNW 06:51:52 19° NNW 06:54:20 10° NNE daylight
02 Jul - 08:28:13 10° NNW 08:29:22 11° N 08:30:31 10° NNE daylight
02 Jul - 10:04:26 10° NNW 10:06:52 19° NNE 10:09:18 10° ENE daylight
02 Jul - 11:40:25 10° NW 11:43:43 84° SW 11:46:59 10° SE daylight
03 Jul - 04:19:52 10° SSW 04:22:57 39° SE 04:26:04 10° ENE visible
03 Jul - 05:56:39 10° W 05:59:30 27° NNW 06:02:23 10° NE daylight
03 Jul - 07:35:30 10° NNW 07:36:51 12° N 07:38:12 10° NNE daylight
03 Jul - 09:12:29 10° NNW 09:14:27 15° NNE 09:16:24 10° NE daylight
03 Jul - 10:48:18 10° NW 10:51:32 51° NNE 10:54:45 10° ESE daylight
03 Jul - 12:25:32 10° W 12:27:44 17° SW 12:29:56 10° S daylight
